Le nostre stazioni meteo in Italia

Pubblicità
Il mio iltempo24.it
Bari, Italia (16271): Temperatura & dewpoint: 13.06.2019 01:00:00 - 19.06.2019 01:00:00 (CEST)Bari, Italia (16271): velocità del vento: 13.06.2019 01:00:00 - 19.06.2019 01:00:00 (CEST)Bari, Italia (16271): direzione del vento: 13.06.2019 01:00:00 - 19.06.2019 01:00:00 (CEST)Bari, Italia (16271): reduced air pressure: 13.06.2019 01:00:00 - 19.06.2019 01:00:00 (CEST)Bari, Italia (16271): precipitazioni: 13.06.2019 01:00:00 - 19.06.2019 01:00:00 (CEST)
Data & Tempo tt [°C] td [°C] ff [km/h] ff [kn] dd ppp [hPa] rr [mm]
19.06.2019 01:00:00 24,5 20,6 8 4 S 1015,0 -
19.06.2019 00:00:00 24,7 19,9 4 2 S 1015,2 -
18.06.2019 23:00:00 25,0 20,0 5 3 S 1014,9 -
18.06.2019 22:00:00 25,1 19,9 2 1 S 1014,9 -
18.06.2019 21:00:00 25,2 21,2 8 4 S 1014,5 -
18.06.2019 20:00:00 26,0 19,8 8 4 S 1014,4 -
18.06.2019 19:00:00 26,5 19,3 9 5 S 1014,0 -
18.06.2019 18:00:00 27,2 19,7 2 1 S 1014,1 -
18.06.2019 17:00:00 28,6 21,1 11 6 S 1013,8 -
18.06.2019 16:00:00 28,4 21,1 11 6 S 1014,4 -
18.06.2019 15:00:00 27,6 20,6 11 6 S 1015,1 -
18.06.2019 14:00:00 27,6 20,9 18 10 S 1015,0 -
18.06.2019 13:00:00 27,6 20,9 15 8 S 1015,2 -
18.06.2019 12:00:00 27,1 20,1 15 8 S 1015,4 -
18.06.2019 11:00:00 26,9 20,4 15 8 S 1015,1 -
18.06.2019 10:00:00 26,9 20,0 9 5 S 1015,0 -
18.06.2019 09:00:00 25,7 19,3 5 3 S 1014,9 -
18.06.2019 08:00:00 24,7 18,6 9 5 S 1014,6 -
18.06.2019 07:00:00 23,6 17,5 9 5 S 1014,1 -
18.06.2019 06:00:00 23,0 17,2 11 6 S 1014,0 -
18.06.2019 05:00:00 23,2 16,7 11 6 S 1014,0 -
18.06.2019 04:00:00 23,6 17,0 9 5 S 1014,0 -
18.06.2019 03:00:00 24,3 17,9 4 2 S 1014,1 -
18.06.2019 02:00:00 24,5 20,6 5 3 S 1013,9 -
18.06.2019 01:00:00 24,7 19,9 8 4 S 1014,0 -
18.06.2019 00:00:00 24,7 20,7 9 5 S 1013,9 -
17.06.2019 23:00:00 25,2 21,2 15 8 S 1013,9 -
17.06.2019 22:00:00 25,2 19,0 8 4 S 1013,8 -
17.06.2019 21:00:00 25,7 19,5 8 4 S 1013,3 -
17.06.2019 20:00:00 26,4 20,0 2 1 S 1013,2 -
17.06.2019 19:00:00 27,7 20,7 8 4 S 1012,5 -
17.06.2019 18:00:00 27,9 20,9 11 6 S 1012,3 -
17.06.2019 17:00:00 28,8 21,5 13 7 S 1012,4 -
17.06.2019 16:00:00 28,5 20,2 8 4 S 1012,6 -
17.06.2019 15:00:00 29,0 19,6 11 6 S 1013,1 -
17.06.2019 14:00:00 28,6 18,9 15 8 S 1013,4 -
17.06.2019 13:00:00 28,8 18,8 13 7 S 1013,7 -
17.06.2019 12:00:00 28,2 19,4 13 7 S 1013,8 -
17.06.2019 11:00:00 28,4 19,0 13 7 S 1013,6 -
17.06.2019 10:00:00 27,8 13,3 11 6 S 1013,6 -
17.06.2019 09:00:00 26,8 16,7 9 5 S 1013,8 -
17.06.2019 08:00:00 25,0 16,4 9 5 S 1013,8 -
17.06.2019 07:00:00 24,5 16,9 5 3 S 1013,5 -
17.06.2019 06:00:00 24,2 16,1 4 2 S 1013,0 -
17.06.2019 05:00:00 24,7 15,8 8 4 S 1012,7 -
17.06.2019 04:00:00 24,7 15,0 5 3 S 1012,5 -
17.06.2019 03:00:00 24,6 14,9 13 7 S 1012,5 -
17.06.2019 02:00:00 25,5 16,3 9 5 S 1012,8 -
17.06.2019 01:00:00 25,9 17,7 8 4 S 1013,5 -
17.06.2019 00:00:00 26,4 19,5 8 4 S 1013,6 -
16.06.2019 23:00:00 26,0 18,8 4 2 S 1013,5 -
16.06.2019 22:00:00 27,4 19,2 4 2 S 1012,7 -
16.06.2019 21:00:00 27,1 18,9 4 2 S 1012,5 -
16.06.2019 20:00:00 27,0 19,3 2 1 S 1013,1 -
16.06.2019 19:00:00 27,5 19,8 4 2 S 1012,9 -
16.06.2019 18:00:00 27,4 19,9 5 3 S 1011,9 -
16.06.2019 17:00:00 28,3 19,7 11 6 S 1012,1 -
16.06.2019 16:00:00 28,1 20,3 13 7 S 1012,5 -
16.06.2019 15:00:00 28,6 20,6 11 6 S 1012,9 -
16.06.2019 14:00:00 28,0 20,5 11 6 S 1013,6 -
16.06.2019 13:00:00 28,1 20,6 22 12 S 1013,8 -
16.06.2019 12:00:00 29,1 17,6 21 11 S 1013,8 -
16.06.2019 11:00:00 28,7 15,2 22 12 S 1013,7 -
16.06.2019 10:00:00 28,6 14,7 18 10 S 1013,4 -
16.06.2019 09:00:00 26,6 17,9 11 6 S 1013,2 -
16.06.2019 08:00:00 26,0 20,7 4 2 S 1013,0 -
16.06.2019 07:00:00 25,2 21,2 4 2 S 1012,7 -
16.06.2019 06:00:00 24,9 19,2 2 1 S 1012,3 -
16.06.2019 05:00:00 25,5 18,9 5 3 S 1012,2 -
16.06.2019 04:00:00 25,8 18,7 8 4 S 1012,3 -
16.06.2019 03:00:00 27,1 17,8 11 6 S 1012,5 -
16.06.2019 02:00:00 28,3 15,5 18 10 S 1012,3 -
16.06.2019 01:00:00 29,7 13,8 18 10 S 1012,2 -
16.06.2019 00:00:00 29,9 16,6 13 7 S 1012,0 -
15.06.2019 23:00:00 30,5 14,1 11 6 S 1011,8 -
15.06.2019 22:00:00 29,1 21,5 5 3 S 1011,6 -
15.06.2019 21:00:00 26,8 22,4 5 3 S 1011,3 -
15.06.2019 20:00:00 27,6 20,9 5 3 S 1011,1 -
15.06.2019 19:00:00 28,5 19,4 11 6 S 1011,4 -
15.06.2019 18:00:00 29,0 15,1 8 4 S 1011,5 -
15.06.2019 17:00:00 27,7 19,4 13 7 S 1012,2 -
15.06.2019 16:00:00 28,1 18,7 13 7 S 1013,1 -
15.06.2019 15:00:00 28,4 21,6 13 7 S 1013,5 -
15.06.2019 14:00:00 27,9 20,4 13 7 S 1013,8 -
15.06.2019 13:00:00 28,8 21,0 11 6 S 1013,8 -
15.06.2019 12:00:00 29,9 18,9 8 4 S 1014,0 -
15.06.2019 11:00:00 30,9 12,3 5 3 S 1014,1 -
15.06.2019 10:00:00 32,1 11,4 2 1 S 1014,1 -
15.06.2019 09:00:00 29,6 9,7 8 4 S 1014,3 -
15.06.2019 08:00:00 27,0 12,6 9 5 S 1014,4 -
15.06.2019 07:00:00 24,4 12,0 11 6 S 1014,2 -
15.06.2019 06:00:00 24,0 11,3 5 3 S 1014,6 -
15.06.2019 05:00:00 24,0 9,2 8 4 S 1014,4 -
15.06.2019 04:00:00 24,7 6,9 4 2 S 1014,7 -
15.06.2019 03:00:00 25,2 6,8 5 3 S 1014,8 -
15.06.2019 02:00:00 25,7 7,3 4 2 S 1015,3 -
15.06.2019 01:00:00 25,6 9,0 9 5 S 1015,7 -
15.06.2019 00:00:00 26,4 7,9 9 5 S 1016,6 -
14.06.2019 23:00:00 27,5 7,4 2 1 S 1016,4 -
14.06.2019 22:00:00 28,0 7,8 8 4 S 1016,6 -
14.06.2019 21:00:00 27,7 9,5 4 2 S 1016,0 -
14.06.2019 20:00:00 27,9 13,4 9 5 S 1015,9 -
14.06.2019 19:00:00 28,3 17,8 11 6 S 1016,3 -
14.06.2019 18:00:00 28,5 18,5 9 5 S 1016,3 -
14.06.2019 17:00:00 28,5 18,2 11 6 S 1017,0 -
14.06.2019 16:00:00 28,1 12,8 22 12 S 1017,3 -
14.06.2019 15:00:00 28,0 16,9 16 9 S 1017,8 -
14.06.2019 14:00:00 27,9 17,7 11 6 S 1018,2 -
14.06.2019 13:00:00 27,5 16,1 13 7 S 1018,8 -
14.06.2019 12:00:00 26,9 18,4 11 6 S 1019,0 -
14.06.2019 11:00:00 26,1 17,7 13 7 S 1018,9 -
14.06.2019 10:00:00 25,5 16,8 13 7 S 1018,7 -
14.06.2019 09:00:00 24,4 17,6 15 8 S 1018,4 -
14.06.2019 08:00:00 22,9 20,6 4 2 S 1018,0 0,0
14.06.2019 07:00:00 22,3 20,2 2 1 S 1017,9 -
14.06.2019 06:00:00 22,1 19,8 4 2 S 1017,8 -
14.06.2019 05:00:00 22,7 20,5 4 2 S 1017,3 -
14.06.2019 04:00:00 22,9 20,6 5 3 S 1017,1 -
14.06.2019 03:00:00 23,2 20,7 8 4 S 1017,4 -
14.06.2019 02:00:00 23,1 20,4 9 5 S 1017,6 -
14.06.2019 01:00:00 23,0 20,8 11 6 S 1017,7 -
14.06.2019 00:00:00 23,3 21,0 13 7 S 1017,8 -
13.06.2019 23:00:00 23,5 21,0 9 5 S 1017,8 -
13.06.2019 22:00:00 23,6 20,9 9 5 S 1017,5 -
13.06.2019 21:00:00 23,7 20,6 11 6 S 1016,9 -
13.06.2019 20:00:00 24,4 19,6 9 5 S 1016,8 -
13.06.2019 19:00:00 25,4 21,4 9 5 S 1016,5 -
13.06.2019 18:00:00 26,0 20,5 8 4 S 1016,5 -
13.06.2019 17:00:00 26,0 21,8 13 7 S 1016,4 -
13.06.2019 16:00:00 27,0 22,8 9 5 S 1016,2 -
13.06.2019 15:00:00 - - - - - - -
13.06.2019 14:00:00 27,5 20,8 11 6 S 1015,7 -
13.06.2019 13:00:00 27,4 20,9 9 5 S 1015,5 -
13.06.2019 12:00:00 26,5 19,6 16 9 S 1015,5 -
13.06.2019 11:00:00 25,7 19,3 13 7 S 1015,0 -
13.06.2019 10:00:00 26,5 19,3 5 3 S 1014,4 -
13.06.2019 09:00:00 26,7 18,5 9 5 S 1013,7 -
13.06.2019 08:00:00 27,2 17,9 2 1 S 1013,3 -
13.06.2019 07:00:00 25,2 17,1 5 3 S 1012,9 -
13.06.2019 06:00:00 24,8 16,7 11 6 S 1012,5 -
13.06.2019 05:00:00 24,1 17,8 9 5 S 1012,2 -
13.06.2019 04:00:00 24,8 17,9 5 3 S 1012,0 -
13.06.2019 03:00:00 24,9 18,3 4 2 S 1011,9 -
13.06.2019 02:00:00 26,0 17,6 2 1 S 1011,9 -
13.06.2019 01:00:00 26,9 16,4 11 6 S 1011,9 -

tt = Temperatura
td = dewpoint
ff = velocità del vento
dd = direzione del vento
ppp = reduced air pressure
rr = precipitazioni

Stazioni seguenti

WeatherPro
AMSI
MeteoEarth